601  
ASUS41 KPHI 230410  
RWRPHI  
 
REGIONAL WEATHER ROUNDUP  
NATIONAL WEATHER SERVICE MOUNT HOLLY NJ  
1100 PM EST MON DEC 22 2014  
 
NOTE: "FAIR" INDICATES FEW OR NO CLOUDS BELOW 12,000 FEET WITH NO  
SIGNIFICANT WEATHER AND/OR S TO VISIBILITY
.  
 
* = STATION DOES NOT REPORT PRECIPITATION (E.G. RAIN, SNOW, ETC.)  
OR FOG.
 
 
NJZ015>026-230500-  
SOUTHERN NEW JERSEY  
 
CITY SKY/WX TMP DP RH WIND PRES REMARKS
 
POMONA CLOUDY 45 43 93 NE8 30.10F  
RIO GRANDE* CLOUDY 46 41 81 NE10 30.05F  
MILLVILLE LGT RAIN 42 41 96 NE6 30.10F  
WRIGHTSTOWN CLOUDY 43 43 100 NE6 30.10F  
MOUNT HOLLY CLOUDY 42 40 92 NE5 30.13F FOG  
TRENTON CLOUDY 44 41 89 E8 30.12F  
 

 
NJZ001>014-230500-  
NORTHERN NEW JERSEY  
 
CITY SKY/WX TMP DP RH WIND PRES REMARKS
 
SUSSEX CLOUDY 37 35 92 NE7 30.16F FOG WCI 32  
ANDOVER* NOT AVBL  
MORRISTOWN CLOUDY 45 43 93 CALM 30.18F  
NEWARK LGT RAIN 45 43 93 NE7 30.18F  
TETERBORO LGT RAIN 44 41 89 E6 30.18F  
CALDWELL CLOUDY 43 31 62 E10 30.17F HAZE  
SOMERVILLE LGT RAIN 44 41 89 VRB6 30.14F FOG  
ALLAIRE* CLOUDY 46 43 87 E8 30.16F  
TOMS RIVER* CLOUDY 45 43 93 NE6 30.13F  
 

 
PAZ043-044-047-054-055-060>062-066>071-230500-  
EASTERN PENNSYLVANIA  
 
CITY SKY/WX TMP DP RH WIND PRES REMARKS
 
PHILADELPHIA CLOUDY 43 40 89 NE7 30.14S FOG  
NORTH PHILA LGT RAIN 45 40 82 E9 30.14F  
BLUE BELL CLOUDY 43 41 93 CALM 30.12F  
DOYLESTOWN LGT RAIN 40 40 100 CALM 30.13F  
QUAKERTOWN* CLOUDY 37 37 100 CALM 30.14F  
POTTSTOWN LGT RAIN 40 39 97 E3 30.14F FOG  
LANCASTER CLOUDY 38 36 92 NE7 30.11F FOG WCI 33  
COATESVILLE CLOUDY 39 39 100 CALM 30.12S FOG  
READING LGT RAIN 37 36 96 N8 30.14S FOG WCI 31  
ALLENTOWN MIX PCPN 37 35 92 E7 30.14F FOG WCI 32  
MOUNT POCONO LGT RAIN 34 34 100 E8 30.10F VSB 1/4 WCI 27  
HAZLETON LGT RAIN 37 37 100 E9G20 30.10F VSB 3/4 WCI 31  
WILKES BARRE CLOUDY 40 36 86 CALM 30.11F  
 

 
DEZALL-MDZ008-012-015-019-020-230500-  
DELAWARE AND EASTERN MARYLAND  
 
CITY SKY/WX TMP DP RH WIND PRES REMARKS
 
WILMINGTON LGT RAIN 42 40 92 NE12 30.12F FOG  
DOVER CLOUDY 41 41 100 NE8 30.06F  
GEORGETOWN CLOUDY 45 42 89 NE10 30.06F  
EASTON CLOUDY 43 43 100 NE7 30.11S FOG  
PATUXENT CLOUDY 41 39 93 N7 30.05F FOG  
OCEAN CITY CLOUDY 52 48 86 E16G25 30.03F  
WALLOPS ISLAND CLOUDY 50 49 96 E18 30.02F  
CAMBRIDGE CLOUDY 43 41 93 N5 30.04F  
SALISBURY CLOUDY 49 46 90 NE9 30.03F  
 

 
PAZ001-021-NYZ056-072-MDZ011-DCZ001-230500-  
OTHER NEARBY LOCATIONS  
 
CITY SKY/WX TMP DP RH WIND PRES REMARKS
 
HARRISBURG CLOUDY 34 32 92 NW7 30.13F FOG WCI 28  
STATE COLLEGE MIX PCPN 32 31 97 CALM 30.08F  
WILLIAMSPORT FRZ RAIN 33 31 92 CALM 30.14F FOG  
BINGHAMTON LGT RAIN 34 34 100 SE7 30.09F FOG WCI 28  
NEW YORK CITY LGT RAIN 44 41 89 E6 30.21F  
BALTIMORE CLOUDY 40 37 89 NE8 30.09F FOG WCI 34  
WASHINGTON DC LGT RAIN 39 35 85 N8 30.10F FOG WCI 34  
 

 
 
CLICK HERE TO GO TO PREVIOUS BULLETINS.

The Nexlab PA Page
The Nexlab NJ Page
The Nexlab DE Page
The Nexlab MD Page Main Text Page